Weather History for KNPA - October, 2013

Change the Weather History Date:

Sunday, October 13, 2013

  Actual Average Record
Temperature  
Mean Temperature 76 °F -  
Max Temperature 86 °F 77 °F 89 °F (2002)
Min Temperature 66 °F 59 °F 46 °F (2000)
Cooling Degree Days 11    
Growing Degree Days 26 (Base 50)    
Moisture  
Dew Point 63 °F    
Average Humidity 72    
Maximum Humidity 100    
Minimum Humidity 40    
Precipitation  
Precipitation 0.00 in - - ()
Sea Level Pressure  
Sea Level Pressure 30.11 in    
Wind  
Wind Speed 5 mph (North)    
Max Wind Speed 13 mph    
Max Gust Speed -    
Visibility 10 miles    
Events      
Averages and records for this station are not official NWS values.
T = Trace of Precipitation, MM = Missing Value Source: NWS Daily Summary

Daily Weather History Graph

Daily Weather History Graph

Search for Another Location

Airport or City:

Trip Planner

Search our weather history database for the weather conditions in past years. The results will help you decide how hot, cold, wet, or windy it might be!

Date:

Astronomy

Oct. 13, 2013 Rise Set
Actual Time 6:50 AM CDT 6:20 PM CDT
Civil Twilight 6:26 AM CDT 6:44 PM CDT
Nautical Twilight 5:58 AM CDT 7:12 PM CDT
Astronomical Twilight 5:30 AM CDT 7:39 PM CDT
Moon 2:51 PM CDT (10/13) 1:22 AM CDT (10/13)
Length of Visible Light 12h 18m
Length of Day
11h 29m
Waxing Gibbous, 69% of the Moon is Illuminated
Oct 13
Waxing Gibbous
Oct 18
Full
Oct 26
Last Quarter
Nov 3
New
Nov 9
First Quarter

Hourly Weather History & Observations

Time (CDT) Temp. Heat Index Dew Point Humidity Pressure Visibility Wind Dir Wind Speed Gust Speed Precip Events Conditions
12:56 AM 66.9 °F - 66.9 °F 100% 30.07 in 10.0 mi NNW 3.5 mph - N/A   Clear
1:56 AM 68.0 °F - 68.0 °F 100% 30.08 in 10.0 mi NW 3.5 mph - N/A   Clear
2:56 AM 69.1 °F - 68.0 °F 96% 30.07 in 10.0 mi Calm Calm - N/A   Clear
3:56 AM 69.1 °F - 68.0 °F 96% 30.07 in 10.0 mi North 4.6 mph - N/A   Clear
4:56 AM 69.1 °F - 66.9 °F 93% 30.09 in 10.0 mi North 4.6 mph - N/A   Clear
5:56 AM 68.0 °F - 66.0 °F 93% 30.10 in 10.0 mi North 3.5 mph - N/A   Clear
6:56 AM 66.9 °F - 64.9 °F 93% 30.12 in 10.0 mi NNW 4.6 mph - N/A   Clear
7:56 AM 71.1 °F - 66.9 °F 87% 30.13 in 10.0 mi NNE 4.6 mph - N/A   Clear
8:56 AM 75.9 °F - 64.9 °F 69% 30.15 in 10.0 mi NNE 5.8 mph - N/A   Clear
9:56 AM 80.1 °F 81.2 °F 62.1 °F 54% 30.16 in 10.0 mi NE 6.9 mph - N/A   Clear
10:56 AM 81.0 °F 81.6 °F 60.1 °F 49% 30.16 in 10.0 mi East 6.9 mph - N/A   Clear
11:56 AM 84.0 °F 83.3 °F 57.0 °F 40% 30.15 in 10.0 mi NE 8.1 mph - N/A   Mostly Cloudy
12:56 PM 84.0 °F 83.8 °F 59.0 °F 43% 30.13 in 10.0 mi NNE 8.1 mph - N/A   Mostly Cloudy
1:56 PM 86.0 °F 85.4 °F 59.0 °F 40% 30.09 in 10.0 mi North 12.7 mph - N/A   Mostly Cloudy
2:56 PM 84.0 °F 84.0 °F 60.1 °F 44% 30.08 in 10.0 mi North 9.2 mph - N/A   Mostly Cloudy
3:56 PM 86.0 °F 85.7 °F 60.1 °F 41% 30.07 in 10.0 mi NNE 11.5 mph - N/A   Mostly Cloudy
4:56 PM 84.0 °F 84.4 °F 61.0 °F 46% 30.07 in 10.0 mi NNE 8.1 mph - N/A   Scattered Clouds
5:56 PM 80.1 °F 81.2 °F 62.1 °F 54% 30.08 in 10.0 mi NNE 5.8 mph - N/A   Scattered Clouds
6:56 PM 73.0 °F - 63.0 °F 71% 30.09 in 10.0 mi Calm Calm - N/A   Scattered Clouds
7:56 PM 69.1 °F - 63.0 °F 81% 30.10 in 10.0 mi Calm Calm - N/A   Scattered Clouds
8:30 PM 69.8 °F - 62.6 °F 78% 30.11 in 10.0 mi Calm Calm - N/A   Scattered Clouds
8:56 PM 71.1 °F - 64.0 °F 78% 30.12 in 10.0 mi North 4.6 mph - N/A   Clear
9:56 PM 72.0 °F - 64.0 °F 76% 30.12 in 10.0 mi NNE 3.5 mph - N/A   Clear
10:56 PM 66.9 °F - 64.0 °F 90% 30.12 in 10.0 mi NNW 3.5 mph - N/A   Clear
11:56 PM 66.0 °F - 63.0 °F 90% 30.10 in 10.0 mi Calm Calm - N/A   Partly Cloudy